Location: Auckland
(36.8670°S, 174.7670°E)
Time: 09:12:46
(UTC+12:00)

Vanguard 2 Rocket - Visible Passes

Search period start: 18 July 2019 00:00
Search period end: 28 July 2019 00:00
Orbit: 554 x 3326 km, 32.9° (Epoch: 16 July)

Date Brightness Start Highest point End Pass type
(mag) Time Alt. Az. Time Alt. Az. Time Alt. Az.
18 Jul 10.9 00:31:33 11° E 00:31:33 11° E 00:32:15 10° E visible
18 Jul 9.6 02:37:21 55° ENE 02:37:21 55° ENE 02:52:30 10° E visible
18 Jul 9.4 04:43:08 48° WNW 04:50:42 78° N 05:10:58 10° ENE visible
18 Jul 9.9 06:49:50 10° W 07:09:14 61° NNW 07:26:39 10° NE visible
19 Jul 10.2 01:41:01 31° E 01:41:01 31° E 01:49:47 10° E visible
19 Jul 9.2 03:46:48 75° NW 03:48:24 78° N 04:09:04 10° E visible
19 Jul 9.7 05:52:35 22° W 06:07:07 69° NNW 06:26:10 10° ENE visible
20 Jul 10.8 00:44:41 14° E 00:44:41 14° E 00:46:49 10° E visible
20 Jul 9.5 02:50:29 62° ENE 02:50:29 62° ENE 03:06:42 10° E visible
20 Jul 9.5 04:56:16 42° W 05:04:49 75° N 05:25:01 10° ENE visible
20 Jul 10.1 07:04:13 10° W 07:22:50 51° NNW 07:39:55 10° NE visible
21 Jul 10.1 01:54:09 36° E 01:54:09 36° E 02:04:01 10° E visible
21 Jul 9.1 03:59:56 70° WNW 04:02:35 77° N 04:23:13 10° ENE visible
21 Jul 9.8 06:05:44 19° W 06:20:57 60° NNW 06:39:44 10° NE visible
22 Jul 10.7 00:57:50 17° E 00:57:50 17° E 01:01:08 10° E visible
22 Jul 9.3 03:03:37 67° ENE 03:03:37 67° ENE 03:20:53 10° E visible
22 Jul 9.5 05:09:24 37° W 05:18:50 68° NNW 05:38:49 10° ENE visible
23 Jul 9.9 02:07:19 40° E 02:07:19 40° E 02:18:12 10° E visible
23 Jul 9.1 04:13:06 63° WNW 04:16:43 73° N 04:37:12 10° ENE visible
23 Jul 10.0 06:18:54 15° W 06:34:36 50° NNW 06:52:53 10° NE visible
24 Jul 10.6 01:11:02 20° E 01:11:02 20° E 01:15:21 10° E visible
24 Jul 9.2 03:16:49 71° NE 03:16:49 71° NE 03:35:01 10° ENE visible
24 Jul 9.6 05:22:37 32° W 05:32:42 59° NNW 05:52:17 10° NE visible
25 Jul 9.8 02:20:34 44° ENE 02:20:34 44° ENE 02:32:23 10° E visible
25 Jul 9.2 04:26:21 55° WNW 04:30:46 66° NNW 04:50:56 10° ENE visible
25 Jul 10.2 06:32:09 11° W 06:48:08 40° NW 07:05:25 10° NNE visible
26 Jul 10.4 01:24:20 23° E 01:24:20 23° E 01:29:33 10° E visible
26 Jul 9.1 03:30:07 70° NNE 03:30:07 70° NNE 03:48:57 10° ENE visible
26 Jul 9.8 05:35:55 26° W 05:46:28 48° NNW 06:05:17 10° NE visible
27 Jul 9.7 02:33:55 47° ENE 02:33:55 47° ENE 02:46:28 10° ENE visible
27 Jul 9.3 04:39:43 46° WNW 04:44:43 57° NNW 05:04:17 10° NE visible
27 Jul 10.4 06:47:06 10° W 07:01:36 29° NW 07:17:10 10° NNE visible
